Regional Weather Roundup
Issued by NWS Charleston, SC

Current Version | Previous Version | Graphics & Text | Print | Product List | Glossary On
Versions: 1 2 3 4 5 6 7 8 9 10 11 12 13 14 15 16 17 18 19 20 21 22 23 24 25 26 27 28 29 30 31 32 33 34 35 36 37 38 39 40 41 42 43 44 45 46 47 48 49 50
000
ASUS42 KCHS 310110
RWRCHS
REGIONAL WEATHER ROUNDUP
NATIONAL WEATHER SERVICE CHARLESTON SC
900 PM EDT WED JUL 30 2014

NOTE: "FAIR" INDICATES FEW OR NO CLOUDS BELOW 12,000 FEET WITH NO
SIGNIFICANT WEATHER AND/OR OBSTRUCTIONS TO VISIBILITY.

NOT ALL STATIONS ARE QUALITY CONTROLLED BY THE NATIONAL
WEATHER SERVICE. USE DATA WITH CAUTION...ESPECIALLY
DEWPOINT OBSERVATIONS.

SCZ027-030-031-034>040-042>050-310200-
...SOUTH CAROLINA...

CITY           SKY/WX    TMP DP  RH WIND       PRES   REMARKS
N CHARLESTON   MOCLDY    82  70  66 NE7       30.02R
WATERFRONT PRK   N/A     82 N/A N/A E16         N/A
FORT JOHNSON   NOT AVBL
MOUNT PLEASANT FAIR      81  72  74 CALM      30.02S
JOHNS ISLAND   PTCLDY    81  70  69 E5        30.01S
PINOPOLIS        N/A     81  70  69 E3        29.93F
MONCKS CORNER    N/A     79  73  83 CALM      30.03R
SUMMERVILLE    CLOUDY    73  70  88 CALM      30.03S
BEAUFORT MCAS  MOCLDY    81  70  69 SE5       30.00R
BEAUFORT ARPT  NOT AVBL
HILTON HEAD IS PTCLDY    82  72  69 NE8       30.00S
GEORGETOWN     NOT AVBL
WALTERBORO     CLOUDY    73 N/A N/A NE5       30.02S
ORANGEBURG     CLEAR     74  68  81 CALM      30.02R
BARNWELL       FAIR      77  68  73 SE6       30.02R
AIKEN          CLOUDY    77  70  78 SE6       30.05S
MANNING        CLOUDY    72  72 100 CALM      30.02S
KINGSTREE      NOT AVBL
COLUMBIA       PTCLDY    78  65  63 E7        30.02R
SUMTER         MOCLDY    76  69  77 SE2       30.02R
FLORENCE       CLOUDY    78  68  71 SE5       30.03R
MYRTLE BEACH   MOCLDY    81  64  57 E10       30.03R
N MYRTLE BEACH MOCLDY    80  64  58 E8        30.03R

$$

GAZ063-065-086>088-099>101-113>116-118-119-134-136>141-150-310200-
...GEORGIA...

CITY           SKY/WX    TMP DP  RH WIND       PRES   REMARKS
SAVANNAH ARPT  MOCLDY    79  72  79 E3        29.99R
HUNTER AAF     CLOUDY    79  73  83 E5        29.97R
FORT STEWART   CLOUDY    78  74  88 E6        29.98R
STATESBORO     NOT AVBL
SYLVANIA       PTCLDY    74  72  93 E5        30.01F
CLAXTON        MOCLDY    81  75  83 CALM      29.99R
THOMSON        MOCLDY    80  71  75 N7        30.05R
AUGUSTA-BUSH   PTCLDY    76  67  73 SE5       30.00R
AUGUSTA-DANIEL PTCLDY    82  66  58 E8        30.01R
SWAINSBORO     FAIR      82  72  69 E5        30.00R
VIDALIA          N/A     81  72  74 E5        29.98S
ALMA           CLOUDY    84  64  50 VRB3      29.96R
WAYCROSS       PTCLDY    85  70  59 SE5       29.96R HX  90
JESUP          FAIR      82  75  78 E5        29.98R
BRUNSWICK      CLOUDY    81  72  74 E3        29.98R
SAINT SIMONS   NOT AVBL

$$

SCZ027-028-034-036>038-045-046-048>050-GAZ119-141-310200-
...LAKE AND SUPPLEMENTAL COASTAL OBSERVATIONS...

STATION/POSITION TIME  TEMP    WIND        PRES    WAVE   SWELL
                       AIR SEA DIR/SP/G            HT/PER HT/PER/DIR
                 (UTC) (F)     (DEG/KT/KT) (MB)    (FT/S) (FT/S/D)
UPR LAKE MARION  NOT AVBL
WINYAH BAY       0000   81      90/  8     1016.0S
LAKE MURRAY      0000   79      80/  5/  7 1015.9R
ACE BASIN NERRS  0000   82      80/  3     1016.0S
FORT PULASKI     0100   81     110/  7/ 10 1015.5R
SAPELO ISLAND    NOT AVBL

$$

ANZ835-935-AMZ111-154-330-350-352-354-374-450-454-472-310200-
...C-MAN AND BUOY OBSERVATIONS...

STATION/POSITION TIME  TEMP    WIND        PRES    WAVE   SWELL
                       AIR SEA DIR/SP/G            HT/PER HT/PER/DIR
                 (UTC) (F)     (DEG/KT/KT) (MB)    (FT/S) (FT/S/D)
FOLLY BEACH CMAN 0000   82      90/ 14/ 16 1016.4R
BUOY 41004       0100   82 83   80/ 14/ 17 1015.4R   4/ 5   2/ 8
BUOY 41008       0100   82 85   90/ 16/ 17 1014.5R   3/ 4   2/ 80/ 8
5E ST. MARYS GA  0100      86                N/A     2/ 8
FRYING PAN BUOY  NOT AVBL
BUOY 41025       0100          VRB 12/ 16  1017.6R   4/ 7   3/ 80/ 7
CAPE LOOKOUT NC  0000   78      70/ 17/ 18 1017.0F
BUOY 41002       0039   75 81  290/  8/ 12 1016.4    5/ 6   5/170/ 6
BUOY 41010       0100   84 85  210/  6/  8 1015.2R   2/ 5   2/180/ 5
BUOY 41012       NOT AVBL
ST AUGUSTINE FL  0100   83     120/  6/  7 1015.1R
CAPERS NEARSHORE 0000   81     100/ 12/ 14   N/A
FRIPP NEARSHORE  NOT AVBL


$$


USA.gov is the U.S. government's official web portal to all federal, state and local government web resources and services.